Litchfield, MN

11:39 AM CST on November 23, 2017 (GMT -0600)
Litchfield Municipal

Weather History for KLJF - February, 2012

Change the Weather History Date:

Tuesday, February 21, 2012

  Actual Average Record
Temperature  
Mean Temperature 32 °F -  
Max Temperature 33 °F 32 °F 60 °F (2017)
Min Temperature 30 °F 13 °F -20 °F (1963)
Degree Days  
Heating Degree Days 34    
Moisture  
Dew Point 29 °F    
Average Humidity 92    
Maximum Humidity 100    
Minimum Humidity 80    
Precipitation  
Precipitation 0.00 in - - ()
Sea Level Pressure  
Sea Level Pressure 29.54 in    
Wind  
Wind Speed 11 mph (West)    
Max Wind Speed 20 mph    
Max Gust Speed 26 mph    
Visibility 9 miles    
Events Snow    
Averages and records for this station are not official NWS values.
T = Trace of Precipitation, MM = Missing Value Source: NWS Daily Summary

Daily Weather History Graph

Daily Weather History Graph

Search for Another Location

Airport or City:

Trip Planner

Search our weather history database for the weather conditions in past years. The results will help you decide how hot, cold, wet, or windy it might be!

Date:

Astronomy

Feb. 21, 2012 Rise Set
Actual Time 7:10 AM CST 5:53 PM CST
Civil Twilight 6:40 AM CST 6:23 PM CST
Nautical Twilight 6:06 AM CST 6:57 PM CST
Astronomical Twilight 5:32 AM CST 7:31 PM CST
Moon 6:38 AM CST (2/21) 6:03 PM CST (2/21)
Length of Visible Light 11h 43m
Length of Day
10h 43m
Waning Crescent, 0% of the Moon is Illuminated
Feb 21
Waning Crescent
Feb 21
New
Feb 29
First Quarter
Mar 8
Full
Mar 14
Last Quarter

Hourly Weather History & Observations

Time (CST) Temp. Windchill Dew Point Humidity Pressure Visibility Wind Dir Wind Speed Gust Speed Precip Events Conditions
12:13 AM 32.0 °F 24.8 °F 32.0 °F 100% 29.57 in 2.5 mi SSE 8.1 mph - N/A   Overcast
12:33 AM 32.0 °F 24.8 °F 32.0 °F 100% 29.57 in 3.0 mi SSE 8.1 mph - N/A Snow Light Snow
12:53 AM 32.0 °F 25.6 °F 32.0 °F 100% 29.56 in 3.0 mi SSE 6.9 mph - N/A   Overcast
1:13 AM 32.0 °F 27.5 °F 32.0 °F 100% 29.55 in 2.5 mi SSE 4.6 mph - N/A   Overcast
1:33 AM 32.0 °F 26.4 °F 32.0 °F 100% 29.54 in 2.0 mi SSE 5.8 mph - N/A   Overcast
1:53 AM 32.0 °F 28.7 °F 32.0 °F 100% 29.53 in 3.0 mi South 3.5 mph - N/A   Overcast
2:13 AM 32.0 °F 27.5 °F 32.0 °F 100% 29.53 in 3.0 mi SSW 4.6 mph - N/A   Overcast
2:33 AM 32.0 °F 27.5 °F 32.0 °F 100% 29.52 in 5.0 mi SSW 4.6 mph - N/A   Overcast
2:53 AM 32.0 °F 24.8 °F 32.0 °F 100% 29.51 in 5.0 mi WSW 8.1 mph - N/A   Overcast
3:13 AM 32.0 °F 24.8 °F 32.0 °F 100% 29.51 in 7.0 mi West 8.1 mph - N/A   Overcast
3:33 AM 32.0 °F 23.0 °F 32.0 °F 100% 29.50 in 7.0 mi West 11.5 mph - N/A   Overcast
3:53 AM 32.0 °F 22.5 °F 32.0 °F 100% 29.50 in 10.0 mi West 12.7 mph - N/A   Overcast
4:13 AM 32.0 °F 23.0 °F 32.0 °F 100% 29.51 in 10.0 mi West 11.5 mph - N/A   Overcast
4:33 AM 32.0 °F 22.5 °F 32.0 °F 100% 29.51 in 10.0 mi West 12.7 mph - N/A   Overcast
4:53 AM 32.0 °F 23.0 °F 32.0 °F 100% 29.51 in 10.0 mi West 11.5 mph 20.7 mph N/A   Overcast
5:13 AM 32.0 °F 22.5 °F 32.0 °F 100% 29.51 in 10.0 mi West 12.7 mph 20.7 mph N/A   Overcast
5:33 AM 32.0 °F 22.1 °F 32.0 °F 100% 29.51 in 10.0 mi West 13.8 mph 19.6 mph N/A   Overcast
5:53 AM 33.8 °F 24.3 °F 32.0 °F 93% 29.52 in 10.0 mi WNW 13.8 mph 18.4 mph N/A   Overcast
6:13 AM 33.8 °F 24.8 °F 32.0 °F 93% 29.52 in 10.0 mi WNW 12.7 mph - N/A   Overcast
6:32 AM 33.8 °F 24.3 °F 32.0 °F 93% 29.52 in 10.0 mi WNW 13.8 mph 19.6 mph N/A   Overcast
6:53 AM 33.8 °F 26.4 °F 32.0 °F 93% 29.52 in 10.0 mi West 9.2 mph - N/A   Overcast
7:13 AM 32.0 °F 22.5 °F 30.2 °F 93% 29.52 in 10.0 mi WNW 12.7 mph 16.1 mph N/A   Overcast
7:32 AM 32.0 °F 22.1 °F 30.2 °F 93% 29.52 in 10.0 mi West 13.8 mph 17.3 mph N/A   Overcast
7:53 AM 32.0 °F 23.0 °F 32.0 °F 100% 29.53 in 10.0 mi West 11.5 mph 17.3 mph N/A   Overcast
8:12 AM 32.0 °F 23.6 °F 32.0 °F 100% 29.53 in 10.0 mi West 10.4 mph - N/A   Overcast
8:33 AM 32.0 °F 23.6 °F 30.2 °F 93% 29.54 in 10.0 mi West 10.4 mph - N/A   Overcast
8:53 AM 30.2 °F 21.3 °F 30.2 °F 100% 29.54 in 10.0 mi West 10.4 mph - N/A   Overcast
9:13 AM 30.2 °F 21.3 °F 28.4 °F 93% 29.54 in 10.0 mi West 10.4 mph 17.3 mph N/A   Overcast
9:33 AM 30.2 °F 20.8 °F 28.4 °F 93% 29.55 in 10.0 mi West 11.5 mph 20.7 mph N/A   Overcast
9:53 AM 30.2 °F 20.2 °F 28.4 °F 93% 29.55 in 10.0 mi West 12.7 mph 20.7 mph N/A   Overcast
10:13 AM 30.2 °F 19.3 °F 28.4 °F 93% 29.55 in 10.0 mi West 15.0 mph 19.6 mph N/A   Overcast
10:33 AM 30.2 °F 19.3 °F 28.4 °F 93% 29.56 in 10.0 mi West 15.0 mph 21.9 mph N/A   Overcast
10:53 AM 30.2 °F 19.8 °F 28.4 °F 93% 29.56 in 10.0 mi West 13.8 mph 24.2 mph N/A   Overcast
11:13 AM 30.2 °F 18.9 °F 28.4 °F 93% 29.56 in 10.0 mi West 16.1 mph 21.9 mph N/A   Overcast
11:33 AM 30.2 °F 19.3 °F 26.6 °F 86% 29.56 in 10.0 mi West 15.0 mph 21.9 mph N/A   Overcast
11:53 AM 30.2 °F 18.9 °F 26.6 °F 86% 29.56 in 10.0 mi West 16.1 mph 24.2 mph N/A   Overcast
12:13 PM 30.2 °F 18.9 °F 26.6 °F 86% 29.56 in 10.0 mi West 16.1 mph 25.3 mph N/A   Overcast
12:33 PM 30.2 °F 18.9 °F 26.6 °F 86% 29.55 in 10.0 mi West 16.1 mph 21.9 mph N/A   Overcast
12:53 PM 30.2 °F 18.9 °F 28.4 °F 93% 29.55 in 10.0 mi West 16.1 mph 23.0 mph N/A   Overcast
1:13 PM 30.2 °F 17.8 °F 28.4 °F 93% 29.54 in 10.0 mi West 19.6 mph 25.3 mph N/A   Overcast
1:33 PM 30.2 °F 18.5 °F 26.6 °F 86% 29.54 in 10.0 mi WNW 17.3 mph 25.3 mph N/A   Overcast
1:53 PM 30.2 °F 18.9 °F 28.4 °F 93% 29.54 in 10.0 mi West 16.1 mph 23.0 mph N/A   Overcast
2:13 PM 30.2 °F 19.3 °F 26.6 °F 86% 29.55 in 10.0 mi West 15.0 mph 23.0 mph N/A   Overcast
2:33 PM 30.2 °F 19.8 °F 26.6 °F 86% 29.55 in 10.0 mi West 13.8 mph 21.9 mph N/A   Overcast
2:53 PM 30.2 °F 18.9 °F 26.6 °F 86% 29.55 in 10.0 mi West 16.1 mph 20.7 mph N/A   Overcast
3:13 PM 30.2 °F 19.3 °F 26.6 °F 86% 29.56 in 10.0 mi West 15.0 mph 25.3 mph N/A   Overcast
3:33 PM 30.2 °F 19.3 °F 26.6 °F 86% 29.56 in 10.0 mi West 15.0 mph 21.9 mph N/A   Overcast
3:53 PM 30.2 °F 19.3 °F 24.8 °F 80% 29.57 in 10.0 mi West 15.0 mph 23.0 mph N/A   Overcast
4:13 PM 30.2 °F 18.9 °F 24.8 °F 80% 29.57 in 10.0 mi WNW 16.1 mph 20.7 mph N/A   Overcast
4:33 PM 30.2 °F 17.8 °F 24.8 °F 80% 29.57 in 10.0 mi West 19.6 mph 25.3 mph N/A   Overcast
4:53 PM 30.2 °F 20.2 °F 24.8 °F 80% 29.58 in 10.0 mi West 12.7 mph 26.5 mph N/A   Overcast
5:13 PM 30.2 °F 19.8 °F 24.8 °F 80% 29.58 in 10.0 mi West 13.8 mph 20.7 mph N/A   Overcast
5:32 PM 30.2 °F 20.8 °F 24.8 °F 80% 29.58 in 10.0 mi West 11.5 mph - N/A   Overcast
5:53 PM 30.2 °F 20.2 °F 24.8 °F 80% 29.59 in 10.0 mi West 12.7 mph 17.3 mph N/A   Mostly Cloudy
6:13 PM 30.2 °F 20.8 °F 24.8 °F 80% 29.58 in 10.0 mi West 11.5 mph 17.3 mph N/A   Overcast
6:53 PM 30.2 °F 21.3 °F 24.8 °F 80% 29.59 in 10.0 mi West 10.4 mph - N/A   Overcast
7:13 PM 30.2 °F 21.9 °F 24.8 °F 80% 29.59 in 10.0 mi West 9.2 mph - N/A   Overcast
7:33 PM 30.2 °F 21.3 °F 24.8 °F 80% 29.59 in 10.0 mi West 10.4 mph - N/A   Overcast
7:53 PM 28.4 °F 21.2 °F 24.8 °F 86% 29.59 in 10.0 mi West 6.9 mph - N/A   Overcast
8:13 PM 28.4 °F 21.2 °F 24.8 °F 86% 29.59 in 10.0 mi West 6.9 mph - N/A   Overcast
8:33 PM 28.4 °F 22.2 °F 24.8 °F 86% 29.59 in 10.0 mi West 5.8 mph - N/A   Overcast
8:53 PM 28.4 °F 23.3 °F 24.8 °F 86% 29.59 in 10.0 mi West 4.6 mph - N/A   Mostly Cloudy
9:13 PM 26.6 °F 21.2 °F 23.0 °F 86% 29.59 in 10.0 mi WSW 4.6 mph - N/A   Scattered Clouds
9:33 PM 26.6 °F 21.2 °F 23.0 °F 86% 29.58 in 10.0 mi West 4.6 mph - N/A   Mostly Cloudy
9:53 PM 26.6 °F 21.2 °F 21.2 °F 80% 29.58 in 10.0 mi West 4.6 mph - N/A   Scattered Clouds
10:13 PM 26.6 °F 20.0 °F 21.2 °F 80% 29.58 in 10.0 mi West 5.8 mph - N/A   Clear
10:33 PM 24.8 °F 19.1 °F 21.2 °F 86% 29.58 in 10.0 mi WSW 4.6 mph - N/A   Clear
10:53 PM 24.8 °F 20.5 °F 21.2 °F 86% 29.58 in 10.0 mi WSW 3.5 mph - N/A   Clear
11:13 PM 23.0 °F 18.4 °F 21.2 °F 93% 29.57 in 10.0 mi WSW 3.5 mph - N/A   Clear
11:33 PM 21.2 °F 16.4 °F 21.2 °F 100% 29.56 in 10.0 mi WSW 3.5 mph - N/A   Clear
11:53 PM 21.2 °F 14.9 °F 19.4 °F 93% 29.56 in 10.0 mi WSW 4.6 mph - N/A   Clear